Location: Gugi
(45.4667°N, 11.1000°E)
Time: 21:05:16
(UTC+00:00)

Cosmos 2263 Rocket - Pass Details

Date: 28 February 2020
Orbit: 822 x 850 km, 71.0° (Epoch: 09 April)

Event Time Altitude Azimuth Distance (km) Brightness Sun altitude
Rises 20:20:26 0° 338° (NNW) 3,417 6.0 -34.9°
Reaches altitude 10° 20:23:04 10° 347° (NNW) 2,481 5.0 -35.3°
Enters shadow 20:25:03 20° 359° (N) 1,850 4.2 -35.6°
